When you browse on this site, cookies collect data to enhance your experience and personalize the content and advertising you see.
Visit our Privacy Policy to learn more. By continuing to use the site, you agree to this use of cookies and data.
  • In Portugal
  • List of Countries
  • For 7 days
  • Water Temperature
  • Weather Map
  • Weather Widgets
  • user-avatar
    Login

    Hourly Weather Zahla

    Today, 1 April, Wednesday

    Time Temperature Precipitation Wind Pressure Humidity
    00:00 +9°C° 0 mm 3 mps 668 mmHg 70%
    01:00 +9°C° 0 mm 3 mps 667 mmHg 72%
    02:00 +8°C° 0 mm 3 mps 667 mmHg 77%
    03:00 +7°C° 0.1 mm 4 mps 667 mmHg 81%
    04:00 +7°C° 0.1 mm 5 mps 667 mmHg 86%
    05:00 +7°C° 0.1 mm 6 mps 667 mmHg 90%
    06:00 +8°C° 0.4 mm 6 mps 667 mmHg 91%
    07:00 +8°C° 0.4 mm 6 mps 667 mmHg 92%
    08:00 +8°C° 0 mm 7 mps 667 mmHg 93%
    09:00 +9°C° 0.3 mm 6 mps 668 mmHg 91%
    10:00 +9°C° 0.3 mm 6 mps 668 mmHg 88%
    11:00 +10°C° 0.3 mm 6 mps 669 mmHg 86%
    12:00 +10°C° 0.2 mm 6 mps 669 mmHg 83%
    13:00 +10°C° 0.2 mm 6 mps 669 mmHg 81%
    14:00 +10°C° 0 mm 5 mps 669 mmHg 80%
    15:00 +11°C° 0.1 mm 4 mps 669 mmHg 80%
    16:00 +10°C° 0.1 mm 4 mps 669 mmHg 80%
    17:00 +10°C° 0.1 mm 4 mps 670 mmHg 80%
    18:00 +10°C° 0.1 mm 3 mps 670 mmHg 84%
    19:00 +9°C° 0.1 mm 3 mps 670 mmHg 88%
    20:00 +9°C° 0.1 mm 3 mps 670 mmHg 92%
    21:00 +9°C° 0.1 mm 3 mps 670 mmHg 92%
    22:00 +8°C° 0.1 mm 2 mps 670 mmHg 92%
    23:00 +8°C° 0.1 mm 2 mps 670 mmHg 93%

    Tomorrow, 2 April, Thursday

    Time Temperature Precipitation Wind Pressure Humidity
    00:00 +8°C° 0 mm 2 mps 670 mmHg 93%
    01:00 +7°C° 0 mm 2 mps 670 mmHg 93%
    02:00 +7°C° 0 mm 2 mps 670 mmHg 93%
    03:00 +7°C° 0 mm 2 mps 670 mmHg 92%
    04:00 +7°C° 0 mm 2 mps 670 mmHg 91%
    05:00 +7°C° 0 mm 2 mps 670 mmHg 90%
    06:00 +8°C° 0 mm 2 mps 671 mmHg 83%
    07:00 +9°C° 0 mm 2 mps 671 mmHg 75%
    08:00 +9°C° 0 mm 3 mps 672 mmHg 68%
    09:00 +11°C° 0 mm 3 mps 672 mmHg 61%
    10:00 +12°C° 0 mm 3 mps 672 mmHg 54%
    11:00 +13°C° 0 mm 3 mps 673 mmHg 47%
    12:00 +13°C° 0 mm 3 mps 673 mmHg 48%
    13:00 +13°C° 0 mm 4 mps 673 mmHg 48%
    14:00 +14°C° 0 mm 4 mps 672 mmHg 49%
    15:00 +13°C° 0 mm 4 mps 672 mmHg 53%
    16:00 +12°C° 0 mm 3 mps 672 mmHg 58%
    17:00 +11°C° 0 mm 3 mps 672 mmHg 62%
    18:00 +11°C° 0 mm 3 mps 672 mmHg 66%
    19:00 +10°C° 0 mm 2 mps 672 mmHg 71%
    20:00 +9°C° 0 mm 2 mps 672 mmHg 75%
    21:00 +9°C° 0 mm 2 mps 672 mmHg 70%
    22:00 +9°C° 0 mm 2 mps 672 mmHg 64%
    23:00 +9°C° 0 mm 2 mps 672 mmHg 59%

    Day after tomorrow, 3 April, Friday

    Time Temperature Precipitation Wind Pressure Humidity
    00:00 +8°C° 0 mm 2 mps 672 mmHg 58%
    01:00 +8°C° 0 mm 2 mps 672 mmHg 57%
    02:00 +7°C° 0 mm 2 mps 671 mmHg 56%
    03:00 +7°C° 0 mm 2 mps 671 mmHg 59%
    04:00 +7°C° 0 mm 2 mps 671 mmHg 62%
    05:00 +7°C° 0 mm 2 mps 671 mmHg 65%
    06:00 +8°C° 0 mm 2 mps 672 mmHg 63%
    07:00 +10°C° 0 mm 3 mps 672 mmHg 60%
    08:00 +12°C° 0 mm 3 mps 673 mmHg 58%
    09:00 +12°C° 0 mm 4 mps 673 mmHg 56%
    10:00 +13°C° 0 mm 5 mps 673 mmHg 55%
    11:00 +14°C° 0 mm 6 mps 673 mmHg 53%
    12:00 +14°C° 0 mm 6 mps 673 mmHg 52%
    13:00 +14°C° 0 mm 6 mps 673 mmHg 50%
    14:00 +14°C° 0 mm 6 mps 673 mmHg 49%
    15:00 +13°C° 0 mm 5 mps 673 mmHg 51%
    16:00 +12°C° 0 mm 5 mps 673 mmHg 52%
    17:00 +12°C° 0 mm 4 mps 672 mmHg 54%
    18:00 +11°C° 0 mm 4 mps 673 mmHg 59%
    19:00 +9°C° 0 mm 3 mps 673 mmHg 64%
    20:00 +8°C° 0 mm 3 mps 673 mmHg 69%
    21:00 +8°C° 0 mm 2 mps 673 mmHg 66%
    22:00 +8°C° 0 mm 2 mps 673 mmHg 62%
    23:00 +7°C° 0 mm 2 mps 673 mmHg 59%

    4 April, Saturday

    Time Temperature Precipitation Wind Pressure Humidity
    00:00 +7°C° 0 mm 2 mps 673 mmHg 54%
    01:00 +8°C° 0 mm 1 mps 673 mmHg 50%
    02:00 +8°C° 0 mm 1 mps 673 mmHg 46%
    03:00 +8°C° 0 mm 1 mps 673 mmHg 43%
    04:00 +8°C° 0 mm 1 mps 673 mmHg 41%
    05:00 +8°C° 0 mm 1 mps 673 mmHg 38%
    06:00 +10°C° 0 mm 1 mps 674 mmHg 34%
    07:00 +11°C° 0 mm 0 mps 675 mmHg 29%
    08:00 +13°C° 0 mm 0 mps 676 mmHg 25%
    09:00 +16°C° 0 mm 1 mps 676 mmHg 26%
    10:00 +18°C° 0 mm 1 mps 676 mmHg 28%
    11:00 +20°C° 0 mm 1 mps 677 mmHg 29%
    12:00 +20°C° 0 mm 1 mps 676 mmHg 31%
    13:00 +20°C° 0 mm 1 mps 676 mmHg 33%
    14:00 +20°C° 0 mm 2 mps 676 mmHg 35%
    15:00 +20°C° 0 mm 2 mps 676 mmHg 39%
    16:00 +19°C° 0 mm 2 mps 675 mmHg 43%
    17:00 +20°C° 0 mm 1 mps 675 mmHg 47%
    18:00 +18°C° 0 mm 1 mps 675 mmHg 50%
    19:00 +16°C° 0 mm 1 mps 675 mmHg 52%
    20:00 +15°C° 0 mm 1 mps 675 mmHg 55%
    21:00 +15°C° 0 mm 2 mps 675 mmHg 52%
    22:00 +15°C° 0 mm 2 mps 675 mmHg 50%
    23:00 +14°C° 0 mm 2 mps 675 mmHg 47%

    5 April, Sunday

    Time Temperature Precipitation Wind Pressure Humidity
    00:00 +14°C° 0 mm 2 mps 674 mmHg 45%
    01:00 +14°C° 0 mm 2 mps 674 mmHg 43%
    02:00 +14°C° 0 mm 2 mps 673 mmHg 41%
    03:00 +13°C° 0 mm 3 mps 673 mmHg 39%
    04:00 +13°C° 0 mm 3 mps 673 mmHg 38%
    05:00 +13°C° 0 mm 4 mps 672 mmHg 36%
    06:00 +14°C° 0 mm 4 mps 673 mmHg 35%
    07:00 +15°C° 0 mm 4 mps 673 mmHg 34%
    08:00 +17°C° 0 mm 4 mps 673 mmHg 33%
    09:00 +19°C° 0 mm 4 mps 673 mmHg 31%
    10:00 +20°C° 0 mm 4 mps 674 mmHg 30%
    11:00 +22°C° 0 mm 4 mps 674 mmHg 28%
    12:00 +23°C° 0 mm 5 mps 673 mmHg 28%
    13:00 +23°C° 0 mm 5 mps 673 mmHg 29%
    14:00 +25°C° 0 mm 5 mps 672 mmHg 29%
    15:00 +23°C° 0 mm 5 mps 672 mmHg 32%
    16:00 +22°C° 0 mm 4 mps 671 mmHg 35%
    17:00 +21°C° 0 mm 3 mps 670 mmHg 39%
    18:00 +20°C° 0 mm 2 mps 670 mmHg 41%
    19:00 +19°C° 0 mm 2 mps 670 mmHg 43%
    20:00 +18°C° 0 mm 1 mps 670 mmHg 45%
    21:00 +16°C° 0 mm 2 mps 670 mmHg 51%
    22:00 +16°C° 0 mm 2 mps 670 mmHg 56%
    23:00 +14°C° 0 mm 3 mps 671 mmHg 62%

    6 April, Monday

    Time Temperature Precipitation Wind Pressure Humidity
    00:00 +13°C° 0 mm 3 mps 671 mmHg 64%
    01:00 +12°C° 0 mm 3 mps 670 mmHg 67%
    02:00 +11°C° 0 mm 3 mps 670 mmHg 69%
    03:00 +11°C° 0 mm 3 mps 670 mmHg 68%
    04:00 +10°C° 0 mm 2 mps 671 mmHg 67%
    05:00 +10°C° 0 mm 2 mps 671 mmHg 67%
    06:00 +12°C° 0 mm 2 mps 671 mmHg 63%
    07:00 +13°C° 0 mm 2 mps 672 mmHg 59%
    08:00 +14°C° 0 mm 2 mps 672 mmHg 55%
    09:00 +14°C° 0 mm 3 mps 673 mmHg 52%
    10:00 +16°C° 0 mm 3 mps 673 mmHg 48%
    11:00 +17°C° 0 mm 4 mps 673 mmHg 44%
    12:00 +17°C° 0 mm 4 mps 673 mmHg 46%
    13:00 +17°C° 0 mm 4 mps 673 mmHg 48%
    14:00 +17°C° 0 mm 4 mps 673 mmHg 50%
    15:00 +15°C° 0 mm 4 mps 673 mmHg 51%
    16:00 +14°C° 0 mm 3 mps 672 mmHg 53%
    17:00 +14°C° 0 mm 3 mps 672 mmHg 55%
    18:00 +12°C° 0 mm 3 mps 672 mmHg 62%
    19:00 +11°C° 0 mm 3 mps 672 mmHg 69%
    20:00 +10°C° 0 mm 2 mps 672 mmHg 76%
    21:00 +9°C° 0 mm 2 mps 672 mmHg 74%
    22:00 +9°C° 0 mm 2 mps 672 mmHg 72%
    23:00 +8°C° 0 mm 2 mps 672 mmHg 70%
    Show more